Location: Melita
(38.4566°N, 122.6369°W)
Time: 12:03:02
(UTC+00:00)

Helios 1A Rocket - Pass Details

Date: 24 January 2020
Orbit: 565 x 586 km, 98.3° (Epoch: 21 February)

Event Time Altitude Azimuth Distance (km) Brightness Sun altitude
Rises 14:17:41 0° 8° (N) 2,808 6.4 -12.7°
Reaches altitude 10° 14:19:51 10° 5° (N) 1,907 5.5 -12.3°
Maximum altitude 14:23:55 60° 286° (WNW) 669 2.9 -11.6°
Drops below altitude 10° 14:27:59 10° 206° (SSW) 1,900 5.5 -10.8°
Sets 14:30:09 0° 203° (SSW) 2,797 6.4 -10.4°
